This is the latest recevied weather packets stored in our database for station/object N7WGJ. If no packets are shown the sender has not sent any weather packets the latest 10 day(s).
| Time | Temp. | Humidity | Pressure | Rain* | Wind** | Luminosity | Snow |
|---|---|---|---|---|---|---|---|
| 1788291689 | 19.44° C | 75% | 1010.7 hPa | 0 mm | - | - | - |
| 1788291089 | 18.89° C | 75% | 1010.6 hPa | 0 mm | - | - | - |
| 1788290490 | 19.44° C | 75% | 1010.8 hPa | 0 mm | - | - | - |
| 1788289889 | 18.89° C | 76% | 1010.7 hPa | 0 mm | - | - | - |
| 1788289308 | 18.89° C | 76% | 1010.8 hPa | 0 mm | - | - | - |
| 1788288693 | 18.89° C | 77% | 1010.9 hPa | 0 mm | - | - | - |
| 1788288097 | 18.89° C | 77% | 1011 hPa | 0 mm | - | - | - |
| 1788287500 | 18.33° C | 79% | 1010.9 hPa | 0 mm | - | - | - |
| 1788286899 | 18.33° C | 79% | 1011 hPa | 0 mm | - | - | - |
| 1788286301 | 18.33° C | 79% | 1010.9 hPa | 0 mm | - | - | - |
| 1788285698 | 17.78° C | 80% | 1010.8 hPa | 0 mm | - | - | - |
| 1788285089 | 17.78° C | 80% | 1010.8 hPa | 0 mm | - | - | - |
| 1788284490 | 17.78° C | 80% | 1010.7 hPa | 0 mm | - | - | - |
| 1788283894 | 17.78° C | 79% | 1010.7 hPa | 0 mm | - | - | - |
| 1788283293 | 18.33° C | 78% | 1010.6 hPa | 0 mm | - | - | - |
| 1788282697 | 18.33° C | 79% | 1010.6 hPa | 0 mm | - | - | - |
| 1788282115 | 18.33° C | 79% | 1010.6 hPa | 0 mm | - | - | - |
| 1788281501 | 17.78° C | 82% | 1010.5 hPa | 0 mm | - | - | - |
| 1788280893 | 17.22° C | 84% | 1010.6 hPa | 0 mm | - | - | - |
| 1788280291 | 17.22° C | 84% | 1010.8 hPa | 0 mm | - | - | - |
| 1788279694 | 16.67° C | 85% | 1010.8 hPa | 0 mm | - | - | - |
| 1788279086 | 16.11° C | 88% | 1010.8 hPa | 0 mm | - | - | - |
| 1788278499 | 15.56° C | 89% | 1010.8 hPa | 0 mm | - | - | - |
| 1788277905 | 15.56° C | 90% | 1010.8 hPa | 0 mm | - | - | - |
| 1788277290 | 15° C | 91% | 1010.9 hPa | 0 mm | - | - | - |
* Rain latest hour (hover to see other rain measurements)
** Current wind speed in m/s (hover to see current wind gust speed)